User: anonymous   Login
Location: Unspecified
(0.0000°N, 0.0000°E)
Time: 21:53:45
(UTC+00:00)
Language:

ENSHI XIDA SHANQUAN - Orbit

View from above orbital plane
View from above orbital plane
View from above satellite
View from above satellite

Ground track
Ground track

The orbit is defined by the following mean orbital elements,

1 64962U          26145.65189042 +.00000000 +00000-0 +78449-3 0 00008
2 64962  97.3622 223.3636 0005684 277.2966  82.7634 15.40164456    01
Epoch (UTC): 25 May 2026 15:38:43
Eccentricity: 0.0005684
inclination: 97.3622°
perigee height: 442 km
apogee height: 450 km
right ascension of ascending node: 223.3636°
argument of perigee: 277.2966°
revolutions per day: 15.40164456
mean anomaly at epoch: 82.7634°

The dashed part of the orbit path shows where the satellite is in the earth's shadow,  

DLR